FW5682 Weather Reports


Display with metric or nautical units.
time (UTC)temp
F
wind
direction
speed
MPH
gust
MPH
rain 1hr
in
rain 24hr
in
rain mn
in
humidity
%
barometer
mb
20260831032308 56 245 2.0 4.0 0.00 0.43 0.06 96 1000.7
20260831032027 56 245 2.0 3.0 0.00 0.43 0.06 96 1000.6
20260831031308 56 245 1.0 2.0 0.00 0.43 0.06 96 1000.6
20260831030809 56 245 0.0 2.0 0.00 0.43 0.06 96 1000.6
20260831030309 57 245 0.0 3.0 0.00 0.43 0.06 96 1000.5
20260831025809 57 245 1.0 4.0 0.00 0.43 0.06 96 1000.5
20260831025311 57 245 2.0 4.0 0.00 0.43 0.06 96 1000.4
20260831024808 57 245 2.0 4.0 0.00 0.43 0.06 96 1000.5
20260831024309 57 245 2.0 4.0 0.00 0.43 0.06 96 1000.5
20260831023809 57 245 2.0 5.0 0.00 0.43 0.06 96 1000.5
20260831023308 57 245 3.0 5.0 0.00 0.43 0.06 96 1000.5
20260831022808 57 244 3.0 4.0 0.00 0.43 0.06 96 1000.5
20260831022308 57 244 2.0 4.0 0.00 0.43 0.06 96 1000.4
20260831021810 57 243 2.0 3.0 0.00 0.43 0.06 96 1000.5
20260831021531 57 243 2.0 5.0 0.00 0.43 0.06 96 1000.3
20260831020808 57 243 3.0 5.0 0.00 0.43 0.06 96 1000.3
20260831020308 57 203 2.0 4.0 0.00 0.43 0.06 96 1000.3
20260831015808 57 203 2.0 3.0 0.00 0.43 0.06 96 1000.2
20260831015309 57 203 1.0 3.0 0.00 0.43 0.06 96 1000.0
20260831014811 57 203 1.0 3.0 0.00 0.43 0.06 96 1000.0
20260831014311 58 203 1.0 3.0 0.01 0.43 0.06 96 1000.2
20260831013809 58 203 2.0 4.0 0.01 0.43 0.06 96 1000.2
20260831013308 58 202 2.0 4.0 0.01 0.43 0.06 96 1000.0
20260831012808 58 202 2.0 3.0 0.01 0.43 0.06 96 1000.2
20260831012309 58 202 2.0 4.0 0.01 0.43 0.06 96 1000.2
20260831011808 58 202 2.0 4.0 0.01 0.43 0.06 96 1000.3
20260831011532 57 202 2.0 4.0 0.01 0.44 0.06 96 1000.3
20260831010809 57 202 3.0 4.0 0.01 0.44 0.06 96 1000.3
20260831010308 57 200 2.0 3.0 0.01 0.46 0.06 96 1000.4
20260831005808 57 200 1.0 2.0 0.01 0.47 0.06 96 1000.5
20260831005308 57 200 1.0 3.0 0.01 0.49 0.06 96 1000.4
20260831004810 57 200 0.0 4.0 0.01 0.50 0.06 96 1000.4
20260831004309 57 200 2.0 4.0 0.01 0.51 0.05 96 1000.4
20260831003809 57 200 2.0 2.0 0.01 0.53 0.05 96 1000.4
20260831003310 57 200 1.0 2.0 0.02 0.54 0.05 96 1000.4
20260831002808 58 200 0.0 0.0 0.02 0.56 0.05 96 1000.4
20260831002309 58 200 0.0 1.0 0.02 0.60 0.05 96 1000.2
20260831001808 58 200 0.0 2.0 0.03 0.61 0.05 96 1000.2
20260831001309 58 200 1.0 3.0 0.04 0.61 0.05 96 1000.2
20260831001030 58 200 2.0 3.0 0.05 0.61 0.05 96 1000.3
20260831000540 58 200 1.0 3.0 0.05 0.61 0.05 96 1000.3
20260830235805 58 200 2.0 3.0 0.05 0.57 0.05 96 1000.3
20260830235306 58 200 1.0 2.0 0.05 0.57 0.05 95 1000.2
20260830234807 58 200 2.0 3.0 0.05 0.57 0.04 96 1000.2
20260830234305 58 200 2.0 3.0 0.04 0.57 0.04 96 1000.2
20260830234027 58 202 2.0 3.0 0.04 0.57 0.04 96 1000.4
20260830233532 58 200 2.0 3.0 0.03 0.57 0.03 96 1000.6
20260830232806 58 200 1.0 2.0 0.03 0.57 0.03 96 1000.7
20260830232306 58 200 2.0 2.0 0.02 0.57 0.02 96 1000.7
20260830231807 58 200 0.0 2.0 0.02 0.57 0.02 96 1000.8
20260830231531 58 200 0.0 3.0 0.01 0.57 0.01 96 1000.8
20260830231029 58 200 1.0 3.0 0.00 0.57 0.00 95 1000.8
20260830230318 58 200 1.0 2.0 0.00 0.57 0.00 95 1000.9
20260830225801 58 200 0.0 3.0 0.00 0.57 0.57 95 1001.0
20260830225305 58 200 1.0 3.0 0.00 0.57 0.57 95 1001.0
20260830224804 58 200 2.0 3.0 0.00 0.57 0.57 95 1001.1
20260830224303 58 200 1.0 3.0 0.00 0.57 0.57 95 1001.1
20260830223759 58 200 1.0 3.0 0.00 0.57 0.57 95 1001.1
20260830223528 58 200 1.0 4.0 0.00 0.57 0.57 95 1001.2
20260830223027 59 200 2.0 4.0 0.00 0.57 0.57 95 1001.3
20260830222258 59 202 2.0 5.0 0.00 0.57 0.57 95 1001.3
20260830221757 59 202 3.0 5.0 0.00 0.57 0.57 95 1001.3
20260830221257 59 202 2.0 5.0 0.00 0.57 0.57 95 1001.3
20260830220757 59 202 3.0 5.0 0.00 0.57 0.57 95 1001.3
20260830220256 59 202 4.0 5.0 0.00 0.57 0.57 95 1001.3
20260830215756 59 262 2.0 3.0 0.00 0.58 0.57 95 1001.3
20260830215254 59 262 1.0 4.0 0.00 0.58 0.57 95 1001.3
20260830214754 59 262 1.0 4.0 0.00 0.58 0.57 95 1001.2
20260830214253 59 265 2.0 4.0 0.00 0.58 0.57 95 1001.3
20260830213751 59 286 2.0 4.0 0.00 0.58 0.57 95 1001.3
20260830213253 59 288 2.0 3.0 0.00 0.58 0.57 95 1001.1
20260830212249 59 286 2.0 3.0 0.01 0.58 0.57 95 1001.3
20260830212016 59 288 2.0 3.0 0.01 0.58 0.57 95 1001.3
20260830211512 59 288 2.0 3.0 0.01 0.58 0.57 95 1001.5
20260830210751 59 289 1.0 3.0 0.01 0.58 0.57 95 1001.5
20260830210249 59 289 0.0 2.0 0.01 0.58 0.57 95 1001.6
20260830210016 59 289 0.0 2.0 0.01 0.57 0.57 94 1001.5
20260830205506 59 289 1.0 2.0 0.01 0.57 0.57 94 1001.6
20260830204746 59 289 0.0 2.0 0.01 0.57 0.57 94 1001.5
20260830204246 59 289 1.0 2.0 0.01 0.57 0.57 94 1001.5
20260830203745 59 289 0.0 2.0 0.02 0.57 0.57 94 1001.5
20260830203244 58 289 2.0 2.0 0.02 0.57 0.57 94 1001.5
20260830202742 58 289 1.0 2.0 0.01 0.57 0.57 94 1001.5
20260830202242 58 289 1.0 2.0 0.01 0.57 0.57 94 1001.5
20260830201741 58 289 1.0 2.0 0.01 0.57 0.57 94 1001.6
20260830201242 58 289 1.0 2.0 0.01 0.57 0.57 94 1001.7
20260830200958 58 289 1.0 2.0 0.01 0.57 0.57 94 1001.8
20260830200240 58 289 0.0 1.0 0.01 0.57 0.57 93 1001.8
20260830195740 58 289 0.0 1.0 0.01 0.57 0.57 93 1001.9
20260830195241 58 289 0.0 1.0 0.01 0.57 0.57 93 1001.9
20260830194740 58 289 0.0 2.0 0.02 0.57 0.57 93 1001.9
20260830194238 58 289 1.0 3.0 0.03 0.57 0.57 93 1001.8
20260830193736 58 289 2.0 3.0 0.03 0.57 0.56 93 1001.7
20260830193235 58 289 2.0 3.0 0.07 0.57 0.56 93 1001.6
20260830192734 58 289 1.0 2.0 0.11 0.57 0.56 93 1001.4
20260830192236 58 289 0.0 4.0 0.17 0.57 0.56 92 1001.3
20260830191734 58 289 1.0 4.0 0.19 0.57 0.56 92 1001.3
20260830191234 58 289 2.0 6.0 0.20 0.57 0.56 92 1001.1
20260830191014 58 289 3.0 9.0 0.21 0.57 0.56 92 1001.2
20260830190511 59 289 5.0 9.0 0.22 0.57 0.56 92 1001.3
20260830185735 59 266 3.0 5.0 0.24 0.35 0.56 92 1001.4
20260830185236 59 266 2.0 7.0 0.24 0.35 0.56 91 1001.6
20260830184739 59 254 4.0 9.0 0.24 0.35 0.55 91 1001.6
20260830184234 60 258 4.0 12.0 0.22 0.35 0.54 91 1001.6
20260830183734 61 237 6.0 15.0 0.21 0.35 0.53 91 1001.7
20260830183237 62 274 7.0 15.0 0.17 0.35 0.49 92 1001.6
20260830182731 62 248 5.0 7.0 0.13 0.35 0.44 92 1001.7
20260830182233 62 268 3.0 5.0 0.07 0.35 0.39 92 1001.4
20260830181731 62 268 1.0 3.0 0.06 0.35 0.37 92 1001.3
20260830181231 62 268 0.0 2.0 0.04 0.35 0.35 92 1001.3
20260830180733 62 268 0.0 4.0 0.03 0.35 0.35 91 1001.2
20260830180232 63 266 2.0 4.0 0.02 0.35 0.34 91 1001.1
20260830175949 63 217 2.0 3.0 0.01 0.32 0.32 91 1001.2
20260830175450 63 217 0.0 2.0 0.00 0.32 0.31 91 1001.4
20260830174729 63 217 1.0 2.0 0.00 0.32 0.31 90 1001.6
20260830174228 63 217 0.0 3.0 0.00 0.32 0.31 90 1001.7
20260830173727 63 217 2.0 4.0 0.00 0.32 0.31 90 1001.8
20260830173226 63 217 1.0 4.0 0.00 0.32 0.31 90 1001.7
20260830172726 63 217 2.0 2.0 0.00 0.32 0.31 90 1001.7
20260830172226 63 217 2.0 4.0 0.00 0.32 0.31 90 1001.6
20260830171726 64 217 0.0 4.0 0.00 0.32 0.31 90 1001.9
20260830171227 64 217 2.0 3.0 0.00 0.32 0.31 90 1002.0
20260830170726 64 217 1.0 3.0 0.00 0.32 0.31 90 1002.0
20260830170226 64 217 2.0 3.0 0.00 0.32 0.31 91 1002.0
20260830165726 64 217 1.0 3.0 0.00 0.32 0.31 91 1002.0
20260830165226 64 217 2.0 5.0 0.00 0.32 0.31 91 1002.0
20260830164727 64 217 2.0 5.0 0.00 0.32 0.31 91 1002.0
20260830164226 64 210 2.0 5.0 0.00 0.32 0.31 91 1002.1
20260830163725 64 210 3.0 4.0 0.00 0.32 0.31 91 1002.1
20260830163225 64 210 3.0 6.0 0.00 0.32 0.31 91 1002.1
20260830162725 64 212 4.0 6.0 0.00 0.32 0.31 91 1002.1
20260830162454 64 209 3.0 9.0 0.00 0.32 0.31 92 1002.0
20260830161725 64 204 4.0 9.0 0.00 0.32 0.31 92 1002.1
20260830161227 64 210 4.0 7.0 0.00 0.32 0.31 92 1002.0
20260830160725 63 196 5.0 7.0 0.01 0.32 0.31 93 1002.1
20260830160225 63 210 4.0 7.0 0.02 0.32 0.31 93 1002.2
20260830155950 63 212 4.0 7.0 0.05 0.29 0.31 93 1002.3
20260830155224 63 214 4.0 5.0 0.06 0.29 0.31 92 1002.3
20260830154725 63 213 2.0 6.0 0.07 0.29 0.31 92 1002.5
20260830154225 63 209 3.0 6.0 0.07 0.29 0.31 92 1002.5
20260830153949 62 212 5.0 9.0 0.07 0.29 0.31 92 1002.5
20260830153225 62 210 4.0 9.0 0.07 0.29 0.31 92 1002.5
20260830152723 62 214 5.0 11.0 0.04 0.29 0.31 92 1002.6
20260830152225 62 210 5.0 11.0 0.04 0.29 0.31 91 1002.6
20260830151725 62 195 5.0 11.0 0.04 0.29 0.31 90 1002.6
20260830151224 63 216 4.0 11.0 0.04 0.30 0.31 90 1002.7
20260830150724 63 173 5.0 14.0 0.04 0.30 0.31 89 1002.7
20260830150223 63 221 8.0 14.0 0.04 0.30 0.29 88 1002.9
20260830145723 64 199 8.0 13.0 0.00 0.26 0.27 88 1003.0
20260830145223 64 228 7.0 13.0 0.00 0.27 0.25 87 1002.9
20260830144722 64 238 6.0 11.0 0.00 0.27 0.24 86 1003.0
20260830144223 65 252 6.0 11.0 0.00 0.28 0.24 84 1003.1
20260830143723 65 243 5.0 11.0 0.00 0.29 0.24 83 1003.0
20260830143222 66 213 6.0 11.0 0.00 0.30 0.24 81 1003.0
20260830142227 67 219 8.0 19.0 0.00 0.31 0.24 77 1002.9
20260830141727 67 223 11.0 19.0 0.00 0.31 0.24 76 1002.9
20260830141227 68 219 6.0 18.0 0.00 0.31 0.24 75 1002.9
20260830140726 69 209 11.0 18.0 0.00 0.31 0.24 74 1003.0
20260830140225 69 234 11.0 17.0 0.00 0.31 0.24 74 1002.9
20260830135725 70 199 6.0 13.0 0.00 0.31 0.24 72 1003.0
20260830135226 70 164 6.0 14.0 0.00 0.31 0.24 71 1003.0
20260830134723 71 188 10.0 14.0 0.00 0.31 0.24 72 1003.0
20260830134224 71 214 9.0 14.0 0.00 0.31 0.24 69 1002.9
20260830133951 73 159 7.0 14.0 0.00 0.31 0.24 68 1003.0
20260830133449 72 154 6.0 13.0 0.00 0.31 0.24 73 1003.0
20260830132721 71 202 7.0 13.0 0.00 0.31 0.24 71 1003.2
20260830132223 71 192 6.0 13.0 0.00 0.31 0.24 71 1003.2
20260830131722 72 197 6.0 13.0 0.00 0.33 0.24 68 1003.1
20260830131220 72 195 8.0 12.0 0.00 0.33 0.24 71 1003.3
20260830130943 72 216 8.0 15.0 0.00 0.33 0.24 72 1003.3
20260830130443 72 216 10.0 15.0 0.00 0.33 0.24 70 1003.3
20260830125717 72 159 9.0 15.0 0.00 0.33 0.24 68 1003.5
20260830125218 72 224 7.0 16.0 0.00 0.33 0.24 69 1003.6
20260830124938 72 230 7.0 16.0 0.00 0.33 0.24 70 1003.4
20260830124216 71 207 9.0 16.0 0.00 0.33 0.24 71 1003.6
20260830123717 72 212 6.0 14.0 0.00 0.33 0.24 71 1003.6
20260830123213 73 217 6.0 17.0 0.00 0.33 0.24 73 1003.6
20260830122711 72 196 7.0 17.0 0.00 0.33 0.24 73 1003.5
20260830122210 70 197 9.0 13.0 0.00 0.33 0.24 72 1003.6
20260830121710 69 219 5.0 12.0 0.00 0.33 0.24 79 1003.6
20260830121452 69 237 4.0 9.0 0.00 0.33 0.24 75 1003.7
20260830120933 69 202 4.0 10.0 0.00 0.33 0.24 75 1003.7
20260830120208 69 250 5.0 12.0 0.00 0.33 0.24 79 1003.7
20260830115710 69 209 7.0 13.0 0.00 0.33 0.24 78 1003.8
20260830115210 69 243 3.0 14.0 0.00 0.33 0.24 76 1003.8
20260830114940 69 226 9.0 14.0 0.00 0.33 0.24 75 1003.8
20260830114441 68 190 6.0 13.0 0.00 0.33 0.24 79 1003.9
20260830113708 69 196 6.0 13.0 0.00 0.33 0.24 80 1003.9
20260830113208 67 216 7.0 11.0 0.00 0.33 0.24 81 1003.9
20260830112705 67 241 6.0 11.0 0.00 0.33 0.24 81 1004.0
20260830112206 67 217 6.0 11.0 0.00 0.33 0.24 82 1003.9
20260830111713 67 221 7.0 11.0 0.00 0.33 0.24 83 1004.0
20260830111207 67 240 7.0 10.0 0.00 0.33 0.24 82 1004.0
20260830110708 68 178 4.0 10.0 0.00 0.33 0.24 81 1004.1
20260830110207 68 235 6.0 10.0 0.00 0.33 0.24 81 1004.1
20260830105208 69 237 4.0 13.0 0.00 0.33 0.24 83 1004.2
20260830104706 69 251 7.0 13.0 0.00 0.33 0.24 83 1004.1
20260830104207 68 204 7.0 11.0 0.00 0.33 0.24 85 1004.2
20260830103707 67 234 5.0 11.0 0.00 0.33 0.24 86 1004.2
20260830103213 66 241 6.0 12.0 0.00 0.33 0.24 88 1004.3
20260830102717 66 185 7.0 13.0 0.00 0.33 0.24 87 1004.3
20260830102213 66 226 6.0 13.0 0.00 0.33 0.24 86 1004.2
20260830101721 67 257 6.0 15.0 0.00 0.33 0.24 85 1004.2
20260830101208 67 230 9.0 15.0 0.00 0.33 0.24 84 1004.3
20260830100933 68 193 7.0 12.0 0.00 0.33 0.24 88 1004.3
20260830100201 67 204 7.0 11.0 0.00 0.33 0.24 87 1004.3
20260830095700 67 213 6.0 13.0 0.00 0.33 0.24 90 1004.3
20260830095421 66 223 8.0 13.0 0.00 0.33 0.24 90 1004.3
20260830094702 65 216 6.0 13.0 0.00 0.33 0.24 91 1004.3
20260830094201 65 202 5.0 13.0 0.00 0.33 0.24 93 1004.3
20260830093700 64 200 5.0 13.0 0.00 0.33 0.24 92 1004.4
20260830093200 64 199 6.0 13.0 0.00 0.33 0.24 93 1004.4
20260830092920 64 212 4.0 9.0 0.00 0.33 0.24 94 1004.4
20260830092201 64 212 5.0 9.0 0.00 0.33 0.24 94 1004.5
20260830091701 64 227 4.0 9.0 0.00 0.33 0.24 95 1004.4
20260830091159 65 182 4.0 9.0 0.00 0.33 0.24 96 1004.4
20260830090701 64 189 5.0 9.0 0.00 0.33 0.24 96 1004.3
20260830090200 63 226 4.0 9.0 0.00 0.33 0.24 97 1004.4
20260830085656 62 220 4.0 9.0 0.00 0.33 0.24 96 1004.4
20260830085155 62 202 5.0 7.0 0.00 0.33 0.24 96 1004.4
20260830084655 62 216 4.0 6.0 0.00 0.33 0.24 96 1004.4
20260830084153 62 217 4.0 6.0 0.00 0.33 0.24 97 1004.4
20260830083652 62 219 3.0 6.0 0.00 0.33 0.24 97 1004.3
20260830083152 62 217 2.0 6.0 0.00 0.33 0.24 97 1004.3
20260830082652 62 204 2.0 5.0 0.00 0.33 0.24 97 1004.3
20260830082424 62 202 2.0 4.0 0.00 0.33 0.24 97 1004.2
20260830081652 62 202 2.0 5.0 0.00 0.33 0.24 97 1004.2
20260830081149 62 202 2.0 5.0 0.00 0.33 0.24 97 1004.2
20260830080649 62 200 3.0 4.0 0.00 0.33 0.24 97 1004.3
20260830080148 61 200 2.0 5.0 0.00 0.33 0.24 97 1004.3
20260830075649 61 200 3.0 5.0 0.01 0.32 0.24 97 1004.4
20260830075408 61 200 3.0 5.0 0.01 0.32 0.24 97 1004.4
20260830074649 61 200 3.0 5.0 0.01 0.32 0.24 97 1004.4
20260830074145 61 200 2.0 5.0 0.01 0.32 0.24 97 1004.4
20260830073147 60 217 1.0 3.0 0.01 0.32 0.24 97 1004.3
20260830072912 60 217 0.0 3.0 0.02 0.32 0.24 97 1004.2
20260830072144 60 217 1.0 4.0 0.02 0.32 0.24 97 1004.2
20260830071645 60 217 2.0 4.0 0.02 0.32 0.24 97 1004.3
20260830070643 60 217 2.0 4.0 0.02 0.32 0.24 97 1004.3
20260830070141 60 217 0.0 4.0 0.02 0.32 0.24 97 1004.2
20260830065906 59 217 2.0 4.0 0.02 0.31 0.24 97 1004.3
20260830065140 59 217 1.0 4.0 0.02 0.31 0.24 96 1004.2
20260830064638 59 217 3.0 5.0 0.02 0.31 0.24 96 1004.1
20260830064138 59 217 2.0 5.0 0.02 0.31 0.24 96 1004.1
20260830063638 59 219 3.0 5.0 0.02 0.31 0.24 96 1004.1
20260830063138 59 219 2.0 7.0 0.02 0.31 0.24 96 1004.1
20260830062637 59 217 2.0 7.0 0.01 0.31 0.22 96 1004.1
20260830062145 59 219 2.0 5.0 0.02 0.31 0.22 96 1004.0
20260830061639 59 219 2.0 5.0 0.02 0.31 0.22 96 1003.9
20260830061138 59 219 3.0 5.0 0.02 0.31 0.22 96 1003.9
20260830060636 59 219 4.0 5.0 0.02 0.31 0.22 96 1003.9
20260830060137 59 219 3.0 5.0 0.02 0.31 0.22 96 1003.9
20260830055638 59 219 2.0 4.0 0.02 0.29 0.22 96 1003.8
20260830055137 59 219 2.0 4.0 0.02 0.29 0.22 96 1003.8
20260830054636 59 219 3.0 4.0 0.02 0.29 0.22 96 1003.7
20260830054135 59 219 2.0 4.0 0.02 0.29 0.22 96 1003.7
20260830053637 59 203 2.0 4.0 0.01 0.29 0.21 96 1003.6
20260830053134 59 203 2.0 5.0 0.01 0.29 0.21 96 1003.6
20260830052636 59 204 3.0 5.0 0.01 0.29 0.21 96 1003.7
20260830052140 59 204 3.0 7.0 0.00 0.29 0.20 96 1003.7
20260830051853 59 204 3.0 7.0 0.00 0.29 0.20 96 1003.7
20260830051135 58 204 3.0 6.0 0.00 0.29 0.20 96 1003.7
20260830050635 58 216 2.0 5.0 0.00 0.29 0.20 96 1003.7
20260830050132 58 221 3.0 5.0 0.00 0.29 0.20 96 1003.6
20260830045857 58 331 2.0 4.0 0.00 0.29 0.20 96 1003.6
20260830045136 58 331 2.0 4.0 0.00 0.29 0.20 96 1003.6
20260830044629 58 357 2.0 4.0 0.00 0.29 0.20 96 1003.6
20260830044344 58 0 2.0 4.0 0.00 0.29 0.20 96 1003.6
20260830043626 58 0 1.0 4.0 0.00 0.29 0.20 96 1003.6
20260830043127 58 0 2.0 3.0 0.00 0.29 0.20 96 1003.6
20260830042624 58 0 2.0 3.0 0.00 0.29 0.20 96 1003.7
20260830042123 58 0 1.0 3.0 0.00 0.29 0.20 96 1003.7
20260830041624 58 0 2.0 3.0 0.00 0.29 0.20 96 1003.6
20260830041121 58 0 1.0 2.0 0.00 0.29 0.20 96 1003.5
20260830040621 58 0 1.0 3.0 0.00 0.29 0.20 96 1003.6
20260830040119 58 0 1.0 3.0 0.00 0.29 0.20 96 1003.5
20260830035616 58 0 1.0 2.0 0.00 0.29 0.20 96 1003.6
20260830035114 58 0 0.0 2.0 0.00 0.29 0.20 96 1003.5
20260830034614 58 0 1.0 2.0 0.00 0.29 0.20 96 1003.5
20260830034338 58 0 1.0 2.0 0.00 0.29 0.20 96 1003.5
20260830033612 58 0 1.0 2.0 0.00 0.29 0.20 96 1003.4
20260830032830 58 0 1.0 2.0 0.00 0.29 0.20 96 1003.5